When you browse on this site, cookies collect data to enhance your experience and personalize the content and advertising you see.
Visit our Privacy Policy to learn more. By continuing to use the site, you agree to this use of cookies and data.
  • în România
  • Lista ţărilor
  • Pe 7 zile
  • Temperatura apei
  • Hartă satelitară
  • Meteo pe hartă
  • Widget-uri
  • user-avatar
    Intrare

    Meteo pe oră la Pernik

    Astăzi, 20 Mai, Luni

    Timp Temperatura Precipitaţii Vânt Presiune Umiditate
    00:00 +12°C° 0 mm 1 m/s 684 mmHg 74%
    01:00 +12°C° 0 mm 1 m/s 684 mmHg 75%
    02:00 +11°C° 0 mm 1 m/s 684 mmHg 76%
    03:00 +11°C° 0 mm 1 m/s 684 mmHg 77%
    04:00 +11°C° 0 mm 1 m/s 684 mmHg 78%
    05:00 +9°C° 0 mm 0 m/s 684 mmHg 79%
    06:00 +12°C° 0 mm 1 m/s 685 mmHg 75%
    07:00 +14°C° 0 mm 1 m/s 685 mmHg 70%
    08:00 +16°C° 0 mm 2 m/s 686 mmHg 65%
    09:00 +18°C° 0 mm 2 m/s 686 mmHg 59%
    10:00 +19°C° 0 mm 3 m/s 686 mmHg 54%
    11:00 +21°C° 0 mm 4 m/s 687 mmHg 48%
    12:00 +21°C° 0.2 mm 5 m/s 687 mmHg 49%
    13:00 +21°C° 0.2 mm 5 m/s 687 mmHg 49%
    14:00 +21°C° 0.2 mm 6 m/s 687 mmHg 50%
    15:00 +20°C° 1 mm 5 m/s 686 mmHg 56%
    16:00 +17°C° 1 mm 5 m/s 686 mmHg 62%
    17:00 +17°C° 1 mm 4 m/s 686 mmHg 68%
    18:00 +14°C° 0.6 mm 4 m/s 686 mmHg 72%
    19:00 +13°C° 0.6 mm 3 m/s 686 mmHg 77%
    20:00 +12°C° 0.6 mm 2 m/s 686 mmHg 82%
    21:00 +10°C° 0 mm 2 m/s 686 mmHg 84%
    22:00 +10°C° 0 mm 2 m/s 686 mmHg 85%
    23:00 +10°C° 0 mm 1 m/s 687 mmHg 87%

    Mâine, 21 Mai, Marţi

    Timp Temperatura Precipitaţii Vânt Presiune Umiditate
    00:00 +9°C° 0 mm 1 m/s 687 mmHg 87%
    01:00 +9°C° 0 mm 1 m/s 687 mmHg 88%
    02:00 +8°C° 0 mm 1 m/s 687 mmHg 88%
    03:00 +8°C° 0 mm 1 m/s 687 mmHg 89%
    04:00 +8°C° 0 mm 1 m/s 687 mmHg 89%
    05:00 +8°C° 0 mm 1 m/s 687 mmHg 89%
    06:00 +10°C° 0 mm 1 m/s 687 mmHg 82%
    07:00 +12°C° 0 mm 2 m/s 688 mmHg 75%
    08:00 +14°C° 0 mm 2 m/s 688 mmHg 68%
    09:00 +15°C° 0.1 mm 2 m/s 689 mmHg 60%
    10:00 +16°C° 0.1 mm 3 m/s 689 mmHg 53%
    11:00 +18°C° 0.1 mm 3 m/s 689 mmHg 45%
    12:00 +18°C° 0.2 mm 4 m/s 689 mmHg 44%
    13:00 +19°C° 0.2 mm 4 m/s 689 mmHg 44%
    14:00 +19°C° 0.2 mm 4 m/s 689 mmHg 43%
    15:00 +19°C° 0.2 mm 4 m/s 689 mmHg 45%
    16:00 +18°C° 0.2 mm 4 m/s 689 mmHg 47%
    17:00 +18°C° 0.2 mm 4 m/s 689 mmHg 50%
    18:00 +16°C° 0.1 mm 3 m/s 689 mmHg 56%
    19:00 +14°C° 0.1 mm 2 m/s 689 mmHg 62%
    20:00 +12°C° 0.1 mm 1 m/s 688 mmHg 68%
    21:00 +12°C° 0 mm 1 m/s 689 mmHg 71%
    22:00 +11°C° 0 mm 1 m/s 689 mmHg 75%
    23:00 +10°C° 0 mm 1 m/s 690 mmHg 78%

    Poimâine, 22 Mai, Miercuri

    Timp Temperatura Precipitaţii Vânt Presiune Umiditate
    00:00 +9°C° 0 mm 1 m/s 690 mmHg 79%
    01:00 +9°C° 0 mm 1 m/s 690 mmHg 81%
    02:00 +8°C° 0 mm 1 m/s 690 mmHg 83%
    03:00 +8°C° 0 mm 1 m/s 690 mmHg 83%
    04:00 +7°C° 0 mm 1 m/s 690 mmHg 83%
    05:00 +7°C° 0 mm 1 m/s 690 mmHg 83%
    06:00 +9°C° 0 mm 1 m/s 690 mmHg 76%
    07:00 +12°C° 0 mm 1 m/s 691 mmHg 68%
    08:00 +14°C° 0 mm 1 m/s 691 mmHg 60%
    09:00 +16°C° 0 mm 1 m/s 692 mmHg 54%
    10:00 +19°C° 0 mm 1 m/s 692 mmHg 48%
    11:00 +21°C° 0 mm 1 m/s 692 mmHg 42%
    12:00 +22°C° 0 mm 1 m/s 692 mmHg 40%
    13:00 +21°C° 0 mm 2 m/s 692 mmHg 39%
    14:00 +23°C° 0 mm 2 m/s 692 mmHg 38%
    15:00 +23°C° 0 mm 2 m/s 691 mmHg 39%
    16:00 +23°C° 0 mm 2 m/s 691 mmHg 39%
    17:00 +23°C° 0 mm 2 m/s 691 mmHg 40%
    18:00 +20°C° 0 mm 1 m/s 690 mmHg 47%
    19:00 +18°C° 0 mm 1 m/s 690 mmHg 54%
    20:00 +15°C° 0 mm 1 m/s 690 mmHg 60%
    21:00 +14°C° 0 mm 1 m/s 690 mmHg 64%
    22:00 +13°C° 0 mm 1 m/s 690 mmHg 68%
    23:00 +12°C° 0 mm 1 m/s 690 mmHg 73%

    23 Mai, Joi

    Timp Temperatura Precipitaţii Vânt Presiune Umiditate
    00:00 +11°C° 0 mm 1 m/s 690 mmHg 74%
    01:00 +11°C° 0 mm 1 m/s 690 mmHg 75%
    02:00 +11°C° 0 mm 1 m/s 690 mmHg 76%
    03:00 +11°C° 0 mm 1 m/s 690 mmHg 78%
    04:00 +10°C° 0 mm 1 m/s 689 mmHg 79%
    05:00 +10°C° 0 mm 1 m/s 689 mmHg 81%
    06:00 +12°C° 0 mm 1 m/s 690 mmHg 74%
    07:00 +14°C° 0 mm 1 m/s 690 mmHg 67%
    08:00 +16°C° 0 mm 2 m/s 691 mmHg 61%
    09:00 +17°C° 0 mm 2 m/s 691 mmHg 57%
    10:00 +19°C° 0 mm 2 m/s 691 mmHg 53%
    11:00 +20°C° 0 mm 2 m/s 691 mmHg 49%
    12:00 +20°C° 0.1 mm 3 m/s 691 mmHg 50%
    13:00 +20°C° 0.1 mm 3 m/s 691 mmHg 51%
    14:00 +20°C° 0.1 mm 4 m/s 690 mmHg 53%
    15:00 +20°C° 0.5 mm 4 m/s 690 mmHg 57%
    16:00 +19°C° 0.5 mm 3 m/s 690 mmHg 62%
    17:00 +18°C° 0.5 mm 3 m/s 689 mmHg 66%
    18:00 +17°C° 0.3 mm 3 m/s 689 mmHg 72%
    19:00 +15°C° 0.3 mm 2 m/s 689 mmHg 78%
    20:00 +13°C° 0.3 mm 2 m/s 688 mmHg 85%
    21:00 +13°C° 0.1 mm 2 m/s 688 mmHg 87%
    22:00 +12°C° 0.1 mm 2 m/s 688 mmHg 90%
    23:00 +12°C° 0.1 mm 2 m/s 689 mmHg 92%

    24 Mai, Vineri

    Timp Temperatura Precipitaţii Vânt Presiune Umiditate
    00:00 +11°C° 0 mm 1 m/s 688 mmHg 93%
    01:00 +11°C° 0 mm 1 m/s 688 mmHg 94%
    02:00 +10°C° 0 mm 1 m/s 688 mmHg 94%
    03:00 +10°C° 0 mm 1 m/s 687 mmHg 94%
    04:00 +9°C° 0 mm 1 m/s 687 mmHg 94%
    05:00 +9°C° 0 mm 1 m/s 687 mmHg 94%
    06:00 +10°C° 0 mm 1 m/s 687 mmHg 87%
    07:00 +12°C° 0 mm 2 m/s 688 mmHg 79%
    08:00 +13°C° 0 mm 2 m/s 688 mmHg 71%
    09:00 +15°C° 0 mm 2 m/s 688 mmHg 64%
    10:00 +16°C° 0 mm 3 m/s 688 mmHg 56%
    11:00 +18°C° 0 mm 3 m/s 688 mmHg 48%
    12:00 +19°C° 0 mm 3 m/s 688 mmHg 47%
    13:00 +19°C° 0 mm 3 m/s 687 mmHg 46%
    14:00 +20°C° 0 mm 4 m/s 687 mmHg 45%
    15:00 +19°C° 0 mm 4 m/s 687 mmHg 46%
    16:00 +19°C° 0 mm 3 m/s 686 mmHg 48%
    17:00 +19°C° 0 mm 3 m/s 686 mmHg 50%
    18:00 +17°C° 0 mm 3 m/s 686 mmHg 58%
    19:00 +15°C° 0 mm 2 m/s 685 mmHg 67%
    20:00 +12°C° 0 mm 2 m/s 685 mmHg 75%
    21:00 +11°C° 0 mm 1 m/s 685 mmHg 79%
    22:00 +10°C° 0 mm 1 m/s 685 mmHg 83%
    23:00 +9°C° 0 mm 1 m/s 685 mmHg 87%

    25 Mai, Sâmbătă

    Timp Temperatura Precipitaţii Vânt Presiune Umiditate
    00:00 +9°C° 0 mm 1 m/s 685 mmHg 87%
    01:00 +8°C° 0 mm 1 m/s 685 mmHg 87%
    02:00 +8°C° 0 mm 1 m/s 684 mmHg 88%
    03:00 +7°C° 0 mm 1 m/s 684 mmHg 86%
    04:00 +7°C° 0 mm 1 m/s 684 mmHg 84%
    05:00 +7°C° 0 mm 1 m/s 685 mmHg 82%
    06:00 +9°C° 0 mm 1 m/s 685 mmHg 73%
    07:00 +12°C° 0 mm 1 m/s 686 mmHg 63%
    08:00 +14°C° 0 mm 1 m/s 686 mmHg 54%
    09:00 +16°C° 0 mm 1 m/s 686 mmHg 48%
    10:00 +19°C° 0 mm 1 m/s 687 mmHg 43%
    11:00 +20°C° 0 mm 2 m/s 687 mmHg 38%
    12:00 +21°C° 0 mm 2 m/s 687 mmHg 37%
    13:00 +21°C° 0 mm 2 m/s 687 mmHg 36%
    14:00 +23°C° 0 mm 2 m/s 687 mmHg 34%
    15:00 +23°C° 0 mm 2 m/s 686 mmHg 36%
    16:00 +23°C° 0 mm 2 m/s 686 mmHg 38%
    17:00 +23°C° 0 mm 2 m/s 686 mmHg 40%
    18:00 +20°C° 0 mm 1 m/s 686 mmHg 47%
    19:00 +18°C° 0 mm 1 m/s 685 mmHg 53%
    20:00 +15°C° 0 mm 1 m/s 685 mmHg 60%
    21:00 +14°C° 0 mm 1 m/s 685 mmHg 65%
    22:00 +12°C° 0 mm 0 m/s 685 mmHg 69%
    23:00 +11°C° 0 mm 0 m/s 685 mmHg 74%
    Arată mai mult